Regional Weather Roundup
Issued by NWS Green Bay, WI

Home | Current Version | Previous Version | Text Only | Print | Product List | Glossary On
Versions: 1 2 3 4 5 6 7 8 9 10 11 12 13 14 15 16 17 18 19 20 21 22 23 24 25 26 27 28 29 30 31 32 33 34 35 36 37 38 39 40 41 42 43 44 45 46 47 48 49 50
695
ASUS43 KGRB 260411
RWRGRB

NORTH-CENTRAL AND NORTHEAST WISCONSIN REGIONAL WEATHER ROUNDUP
NATIONAL WEATHER SERVICE GREEN BAY WI
1100 PM CDT SUN JUN 25 2017

WIZ005-009-010>012-018-019-260500-
NORTH CENTRAL WISCONSIN

CITY           SKY/WX    TMP DP  RH WIND       PRES   REMARKS
IRONWOOD       LGT RAIN  48  48 100 NW14      30.04S FOG
MANITOWISH WTR CLOUDY    46  46 100 W6        30.04F
ARBOR VITAE    MOCLDY    51  48  92 NW3       30.04F
EAGLE RIVER    DRIZZLE   48  48  99 CALM      30.03F
LAND O LAKES   CLOUDY    49  47  94 W7        30.04F
RHINELANDER    CLEAR     46  46 100 W5        30.06S
PHILLIPS       PTCLDY    47  46  98 CALM      30.07S
ANTIGO         CLEAR     48  46  93 NW8       30.05F
TOMAHAWK       NOT AVBL
MERRILL        MOCLDY    50  48  95 W5        30.07S
$$

WIZ013-073-260500-
NORTHEAST WISCONSIN

CITY           SKY/WX    TMP DP  RH WIND       PRES   REMARKS
IRON MOUNTAIN  LGT RAIN  53  49  86 NW8       29.99F
MARINETTE      CLOUDY    56  53  90 NW5       30.00F
OCONTO         PTCLDY    54  51  90 W9        30.01S
$$

WIZ017-030-035>037-045-260500-
CENTRAL WISCONSIN

CITY           SKY/WX    TMP DP  RH WIND       PRES   REMARKS
MEDFORD        CLOUDY    50  48  93 W6        30.08S
WAUSAU         CLEAR     51  48  89 W9        30.05F
MOSINEE        CLEAR     50  48  93 W7        30.08F
MARSHFIELD     CLEAR     50  46  86 W6        30.08F
WISC RAPIDS    MOCLDY    52  48  86 W5        30.09F
STEVENS POINT  CLEAR     51  49  93 W5        30.08S
WAUPACA        PTCLDY    55  53  94 W5        30.07S
SHAWANO        CLEAR     54  49  83 W7        30.04S
CLINTONVILLE   CLEAR     52  46  82 W5        30.05S
WAUTOMA        CLEAR     53  50  89 W8        30.09S
$$

WIZ038-039-048-051-260500-
FOX VALLEY

CITY           SKY/WX    TMP DP  RH WIND       PRES   REMARKS
NWS GREEN BAY  PTCLDY    56  50  80 W10       30.04S
APPLETON       PTCLDY    54  52  94 W7        30.04S
OSHKOSH        CLEAR     55  51  86 W5        30.06S
FOND DU LAC    CLEAR     56  51  84 W6        30.07S
$$

WIZ022-050-052-260500-
EAST CENTRAL WISCONSIN

CITY           SKY/WX    TMP DP  RH WIND       PRES   REMARKS
EPHRAIM        DRIZZLE   55  53  94 NW3       29.98S
WASHINGTON ISL CLOUDY    55  53  90 N5        29.97S
STURGEON BAY     N/A     57  53  86 W12         N/A
MANITOWOC      MOCLDY    57  52  83 W10       30.03F
SHEBOYGAN      CLOUDY    57  55  93 W10       30.05S
$$

LMZ563-521-522-541>543-260500-
LAKESHORE

STATION/POSITION TIME  TEMP    WIND        PRES    VSBY  WAVE
                       AIR SEA DIR/SP/G                  HT/PER
                 (UTC) (F)     (DEG/KT/KT) (MB)    (MI)  (FT/S)
SHEBOYGAN LKSHOR 0400   58     260/ 10/ 11 1017.1F
KEWAUNEE LKSHORE 0348   57     270/  6/ 11 1015.8F
NORTHPORT PIER   0340   59     320/  7/ 11 1015.2S
N MID LAKE BUOY  0350   57 57  340/  8/ 10 1015.5R         2/ 5
S GREEN BAY BUOY 0400   59     270/ 16/ 21 1015.7
CHAMBERS ISLAND  0340   57     290/  8/ 11 1015.2S
MENOMINEE LKSHOR 0348          270/  4/  6 1014.9F
$$




USA.gov is the U.S. government's official web portal to all federal, state and local government web resources and services.